Meteo Giornale » Osservazioni meteo Italia » Palermo-Punta Raisi

ore: 15:20 - Osservazioni Meteo Palermo-Punta Raisi
Lat. 38° 11' N Lon. 13° 6' E Alt. 21 metri s.l.m.

sereno Europe/Rome

28 °C

Sereno

Temp. 24 Ore

25 °C

29 °C

Nord-Est

22.2 Km/h

Dew point 23 °C

Umidità 74 %

Visibilità  10 Km

Il sole sorge alle ore 06:28

Il sole tramonta alle ore 19:52

Data e Ora Cielo e Fenomeni T °C DP °C Um. % Pres. hPa Vis. km Vento km/h
Oggi h: 15:20 sereno Sereno 28 23 74 1016 10 NE 22.2
Oggi h: 14:50 sereno Sereno 29 23 70 1016 10 NE 24
Oggi h: 14:20 sereno Sereno 28 22 69 1016 10 N/NE 22.2
Oggi h: 13:50 sereno Sereno 29 22 66 1017 10 N/NE 22.2
Oggi h: 13:20 sereno Sereno 29 23 70 1017 10 N/NE 16.7
Oggi h: 12:50 sereno Sereno 29 23 70 1017 10 N 9.3
Oggi h: 12:20 sereno Sereno 28 23 74 1017 10 O/NO 9.3
Oggi h: 11:50 sereno Sereno 28 23 74 1017 10 NO 7.4
Oggi h: 11:20 sereno Sereno 27 24 83 1017 10 NO 7.4
Oggi h: 10:50 sereno Sereno 27 24 83 1017 10 O 7.4
Oggi h: 10:20 sereno Sereno 27 23 78 1017 10 N 5.5
Oggi h: 09:50 sereno Sereno 27 23 78 1017 10 N 5.5
Oggi h: 09:20 sereno Sereno 26 23 83 1017 10 N 5.5
Oggi h: 08:50 sereno Sereno 26 23 83 1017 10 O/SO 7.4
Oggi h: 08:20 sereno Sereno 27 22 74 1017 10 S 7.4
Oggi h: 07:50 sereno Sereno 26 20 69 1017 10 N 5.5
Oggi h: 07:20 sereno Sereno 25 21 78 1016 10 N/NE 14.8
Oggi h: 06:50 sereno Sereno 25 21 78 1016 10 N 5.5
Oggi h: 06:20 sereno Sereno 25 21 78 1016 10 S 7.4
Oggi h: 05:50 sereno Sereno 25 22 83 1016 10 N 3.7
Oggi h: 05:20 sereno Sereno 25 22 83 1016 10 S 7.4
Oggi h: 04:50 sereno Sereno 25 22 83 1016 10 SE 9.3
Oggi h: 03:20 sereno Sereno 25 21 78 1016 10 E/NE 9.3
Oggi h: 02:50 sereno Sereno 26 23 83 1016 10 N 3.7
Oggi h: 02:20 sereno Sereno 26 23 83 1017 10 N 3.7
Oggi h: 01:50 sereno Sereno 26 22 78 1017 10 N 1.8
Oggi h: 01:20 sereno Sereno 25 22 83 1017 10 SE 7.4
Oggi h: 00:50 sereno Sereno 25 23 88 1017 10 S/SO 9.3
Oggi h: 00:20 sereno Sereno 26 23 83 1017 10 S/SO 11.1
Ieri h: 23:50 sereno Sereno 26 23 83 1017 10 N 5.5
Ieri h: 23:20 sereno Sereno 27 24 83 1017 10 N 5.5
Ieri h: 22:50 sereno Sereno 27 23 78 1017 10 N 3.7
Ieri h: 22:20 sereno Sereno 27 24 83 1017 10 O 11.1
Ieri h: 21:50 sereno Sereno 27 24 83 1017 10 O 9.3
Ieri h: 21:20 sereno Sereno 27 23 78 1017 10 N 3.7
Ieri h: 20:50 sereno Sereno 27 22 74 1016 10 E/NE 13
Ieri h: 20:20 sereno Sereno 28 23 74 1016 10 E/NE 14.8
Ieri h: 19:50 sereno Sereno 28 23 74 1016 10 E 20.3
Ieri h: 19:20 sereno Sereno 28 23 74 1016 10 E/NE 24
Ieri h: 18:50 poco_nuvoloso Poco Nuvoloso 28 24 78 1016 10 NE 27.8
Ieri h: 18:20 sereno Sereno 28 23 74 1016 10 NE 31.5
Ieri h: 17:50 sereno Sereno 29 23 70 1016 10 E/NE 31.5
Ieri h: 17:20 poco_nuvoloso Poco Nuvoloso 28 24 78 1016 10 NE 33.3
Ieri h: 16:50 poco_nuvoloso Poco Nuvoloso 28 24 78 1016 10 NE 33.3
Ieri h: 16:20 poco_nuvoloso Poco Nuvoloso 29 23 70 1016 10 NE 33.3
Ieri h: 15:50 poco_nuvoloso Poco Nuvoloso 29 24 74 1016 10 NE 33.3